Regional Weather Roundup
Issued by NWS Sterling, VA

Home | Current Version | Previous Version | Text Only | Print | Product List | Glossary On
Versions: 1 2 3 4 5 6 7 8 9 10 11 12 13 14 15 16 17 18 19 20 21 22 23 24 25 26 27 28
000
ASUS41 KLWX 220910
RWRLWX

REGIONAL WEATHER ROUNDUP
NATIONAL WEATHER SERVICE BALTIMORE MD/WASHINGTON DC
400 AM EST WED FEB 22 2017

Note: "FAIR" indicates few or no clouds below 12,000 feet
with no significant weather and/or obstructions to visibility.
 TC=TEMPERATURE CELSIUS

 * =Non NWS site. Station does not report precipitation (e.g. rain,
    snow, etc.), thunder, or fog.

DCZ001-MDZ009-015-VAZ040>042-051-053>054-221000-
WASHINGTON METRO

CITY           SKY/WX    TMP DP  RH WIND       PRES   REMARKS
WASHINGTON NAT CLOUDY    46  40  79 S7        30.04F
DULLES         CLOUDY    46  37  71 CALM      30.02F
ANDREWS AFB    CLOUDY    45  38  78 S8        30.02F
FT BELVOIR     CLOUDY    45  38  75 SE3       30.03F
QUANTICO       CLOUDY    45  42  89 S6        30.05F
COLLEGE PARK*  CLOUDY    45  36  70 CALM      30.04S
LEESBURG*      CLOUDY    46  41  81 MISG      30.03F
MANASSAS*      CLOUDY    46  39  76 S3        30.03F
GAITHERSBURG*  CLOUDY    45  36  70 S3        30.07S

$$

MDZ006>007-011-014-221000-
BALTIMORE METRO

CITY           SKY/WX    TMP DP  RH WIND       PRES   REMARKS
BWI AIRPORT    CLOUDY    44  39  82 CALM      30.04F
MD SCIENCE CTR   N/A     46  37  71 MISG      30.04F
ANNAPOLIS      CLOUDY    45  41  86 S8        30.03F
FORT MEADE*    CLOUDY    41  36  81 CALM      30.06S

$$

MDZ012-015-019>023-221000-
MARYLAND EASTERN SHORE

CITY           SKY/WX    TMP DP  RH WIND       PRES   REMARKS
OCEAN CITY     PTCLDY    41  38  89 CALM      30.07F
SALISBURY      PTCLDY    41  40  96 CALM      30.06F
BAY BRIDGE AP* CLOUDY    45  39  81 S7        30.04F
EASTON*        CLOUDY    43  37  79 S3        30.08F

$$

MDZ017>025-221000-
SOUTHERN MARYLAND

CITY           SKY/WX    TMP DP  RH WIND       PRES   REMARKS
PATUXENT RIVER PTCLDY    43  41  93 SE3       30.05F
ST INIGOES     CLOUDY    44  41  89 CALM      30.05F
LEONARDTOWN*   PTCLDY    43  37  81 S3        30.06F

$$

MDZ003>005-221000-
NORTH CENTRAL MARYLAND

CITY           SKY/WX    TMP DP  RH WIND       PRES   REMARKS
FREDERICK*     CLOUDY    41  37  87 CALM      30.05F
HAGERSTOWN APT PTCLDY    47  37  68 CALM      30.00F
WESTMINSTER*   CLOUDY    43  37  81 S3        30.01F

$$

MDZ501>502-221000-
WESTERN MARYLAND

CITY           SKY/WX    TMP DP  RH WIND       PRES   REMARKS
OAKLAND*       CLOUDY    48  36  61 SW8       29.97F
CUMBERLAND*    PTCLDY    45  36  70 CALM      30.02F

$$

VAZ025>031-221000-
SHENANDOAH VALLEY

CITY           SKY/WX    TMP DP  RH WIND       PRES   REMARKS
WINCHESTER*    PTCLDY    43  36  75 CALM      29.99S
FRONT ROYAL*   CLOUDY    46  37  71 CALM      29.98S
LURAY*         CLOUDY    54  43  66 SW8       30.00S
NEW MARKET*    CLOUDY    51  39  63 SW5       29.99F
STAUNTON*      LGT RAIN  46  43  88 SE5       30.02F
WAYNESBORO*    CLOUDY    47  42  85 CALM      30.00F

$$

WVZ021-048>050-054>055-221000-
EASTERN WEST VIRGINIA PANHANDLE

CITY           SKY/WX    TMP DP  RH WIND       PRES   REMARKS
MARTINSBURG    CLOUDY    43  35  73 CALM      29.99F
PETERSBURG*    CLOUDY    48  42  80 NW3       29.99S

$$

VAZ036>039-050-221000-
CENTRAL FOOTHILLS

CITY           SKY/WX    TMP DP  RH WIND       PRES   REMARKS
CHARLOTTESVILL CLOUDY    50  38  63 S6        30.01F
CULPEPER*      CLOUDY    49  42  75 CALM      30.03S
ORANGE*        PTCLDY    46  39  76 CALM      30.03S
GORDONSVILLE*  CLOUDY    46  39  78 CALM      30.02S
WARRENTON*     CLOUDY    49  38  64 S6        30.01F

$$

VAZ055>057-221000-
NORTH AND CENTRAL PIEDMONT

CITY           SKY/WX    TMP DP  RH WIND       PRES   REMARKS
FREDERICKSBRG* CLOUDY    44  40  84 CALM      30.04S
STAFFORD*      CLOUDY    44  39  83 CALM      30.08S

$$

NCZ024-NYZ072-PAZ021-071-VAZ022-071-221000-
OTHER REGIONAL OBSERVATIONS

CITY           SKY/WX    TMP DP  RH WIND       PRES   REMARKS
NEW YORK CITY  CLOUDY    43  34  70 VRB5      30.09S
PHILADELPHIA   CLOUDY    42  36  79 CALM      30.06F
PITTSBURGH     CLOUDY    54  45  71 CALM      29.93S
ROANOKE        CLOUDY    48  39  71 CALM      30.04F
RICHMOND       CLOUDY    43  40  89 CALM      30.04F
RALEIGH        MOCLDY    52  47  83 SE6       30.03F

$$

ANZ530>537-221000-
MARINE OBSERVATIONS

STATION/POSITION TIME  TEMP    WIND        PRES
                       AIR SEA DIR/SP/G
                 (UTC) (F)     (DEG/KT/KT) (MB)
THOMAS PT LIGHT  0900   43 43  170/  8/  9   N/A
BALT KEY BRIDGE  0848   44     130/  3/  4 1017.2F
COVE POINT       0848   43     190/  8/ 10 1018.0F
LEWISETTA        0848   45 47  180/  3/  3 1017.4F
SOLOMONS ISLAND  0848   43 43  150/  3/  4   N/A
PINEY POINT      0848          160/  5/  5   N/A

$$





USA.gov is the U.S. government's official web portal to all federal, state and local government web resources and services.